Location: Paderno d�Adda
(45.6667°N, 9.4333°E)
Time: 20:55:04
(UTC+00:00)

Cosmos 1833 Rocket - Pass Details

Date: 19 September 2020
Orbit: 831 x 841 km, 71.0° (Epoch: 27 October)

Event Time Altitude Azimuth Distance (km) Brightness Sun altitude
Rises 19:43:27 0° 339° (NNW) 3,407 6.6 -24.0°
Reaches altitude 10° 19:46:10 10° 349° (NNW) 2,469 5.6 -24.4°
Enters shadow 19:51:06 33° 49° (NE) 1,377 3.6 -25.1°
